When you browse on this site, cookies collect data to enhance your experience and personalize the content and advertising you see.
Visit our Privacy Policy to learn more. By continuing to use the site, you agree to this use of cookies and data.
  • In Österreich
  • Länderverzeichnis
  • Für 7 Tage
  • Wassertemperatur
  • Wetterkarte
  • News
  • Widgets
  • user-avatar
    Anmelden

    Stündliche Wetter Tizayuca

    Heute, 25 August, Sonntag

    Zeit Temperatur Niederschläge Wind Luftdruck Luftfeuchtigkeit
    00:00 +16°C° 0 mm 1 m/S 582 mmHg 79%
    01:00 +15°C° 0 mm 0 m/S 581 mmHg 80%
    02:00 +14°C° 0 mm 0 m/S 581 mmHg 80%
    03:00 +14°C° 0 mm 0 m/S 581 mmHg 80%
    04:00 +14°C° 0 mm 0 m/S 581 mmHg 81%
    05:00 +13°C° 0 mm 0 m/S 581 mmHg 81%
    06:00 +15°C° 0 mm 0 m/S 582 mmHg 75%
    07:00 +17°C° 0 mm 0 m/S 583 mmHg 70%
    08:00 +19°C° 0 mm 0 m/S 584 mmHg 64%
    09:00 +22°C° 0 mm 1 m/S 584 mmHg 57%
    10:00 +24°C° 0 mm 1 m/S 584 mmHg 51%
    11:00 +25°C° 0 mm 1 m/S 585 mmHg 45%
    12:00 +26°C° 0 mm 2 m/S 584 mmHg 43%
    13:00 +26°C° 0 mm 2 m/S 584 mmHg 41%
    14:00 +27°C° 0 mm 3 m/S 584 mmHg 40%
    15:00 +26°C° 0.2 mm 3 m/S 583 mmHg 46%
    16:00 +25°C° 0.2 mm 3 m/S 583 mmHg 52%
    17:00 +24°C° 0.2 mm 3 m/S 583 mmHg 59%
    18:00 +21°C° 0.3 mm 3 m/S 582 mmHg 63%
    19:00 +20°C° 0.3 mm 2 m/S 582 mmHg 66%
    20:00 +18°C° 0.3 mm 2 m/S 582 mmHg 70%
    21:00 +19°C° 0.3 mm 1 m/S 582 mmHg 73%
    22:00 +18°C° 0.3 mm 1 m/S 581 mmHg 75%
    23:00 +15°C° 0.3 mm 0 m/S 581 mmHg 77%

    Morgen, 26 August, Montag

    Zeit Temperatur Niederschläge Wind Luftdruck Luftfeuchtigkeit
    00:00 +16°C° 0.2 mm 1 m/S 581 mmHg 78%
    01:00 +16°C° 0.2 mm 1 m/S 580 mmHg 79%
    02:00 +15°C° 0.2 mm 1 m/S 580 mmHg 80%
    03:00 +15°C° 0.2 mm 1 m/S 580 mmHg 81%
    04:00 +14°C° 0.2 mm 0 m/S 579 mmHg 81%
    05:00 +14°C° 0.2 mm 0 m/S 579 mmHg 82%
    06:00 +15°C° 0 mm 0 m/S 580 mmHg 77%
    07:00 +17°C° 0 mm 0 m/S 581 mmHg 72%
    08:00 +18°C° 0 mm 0 m/S 582 mmHg 67%
    09:00 +19°C° 0.3 mm 0 m/S 582 mmHg 63%
    10:00 +23°C° 0.3 mm 1 m/S 583 mmHg 58%
    11:00 +24°C° 0.3 mm 1 m/S 583 mmHg 53%
    12:00 +25°C° 0.6 mm 2 m/S 583 mmHg 52%
    13:00 +25°C° 0.6 mm 2 m/S 583 mmHg 50%
    14:00 +26°C° 0.6 mm 3 m/S 582 mmHg 49%
    15:00 +24°C° 1 mm 3 m/S 582 mmHg 55%
    16:00 +22°C° 1 mm 3 m/S 581 mmHg 60%
    17:00 +21°C° 1 mm 3 m/S 580 mmHg 66%
    18:00 +20°C° 1.3 mm 2 m/S 581 mmHg 69%
    19:00 +20°C° 1.3 mm 1 m/S 581 mmHg 72%
    20:00 +18°C° 1.3 mm 1 m/S 581 mmHg 75%
    21:00 +18°C° 0.1 mm 1 m/S 581 mmHg 75%
    22:00 +16°C° 0.1 mm 1 m/S 581 mmHg 75%
    23:00 +16°C° 0.1 mm 1 m/S 580 mmHg 76%

    übermorgen, 27 August, Dienstag

    Zeit Temperatur Niederschläge Wind Luftdruck Luftfeuchtigkeit
    00:00 +15°C° 0 mm 1 m/S 580 mmHg 77%
    01:00 +14°C° 0 mm 0 m/S 580 mmHg 78%
    02:00 +14°C° 0 mm 0 m/S 579 mmHg 79%
    03:00 +13°C° 0 mm 0 m/S 579 mmHg 80%
    04:00 +13°C° 0 mm 0 m/S 579 mmHg 81%
    05:00 +13°C° 0 mm 0 m/S 579 mmHg 82%
    06:00 +15°C° 0 mm 0 m/S 580 mmHg 78%
    07:00 +16°C° 0 mm 0 m/S 581 mmHg 73%
    08:00 +18°C° 0 mm 0 m/S 582 mmHg 69%
    09:00 +21°C° 0.1 mm 1 m/S 583 mmHg 63%
    10:00 +23°C° 0.1 mm 1 m/S 583 mmHg 57%
    11:00 +24°C° 0.1 mm 1 m/S 583 mmHg 51%
    12:00 +24°C° 0.7 mm 2 m/S 583 mmHg 51%
    13:00 +24°C° 0.7 mm 3 m/S 583 mmHg 51%
    14:00 +23°C° 0.7 mm 4 m/S 582 mmHg 52%
    15:00 +22°C° 0.9 mm 4 m/S 582 mmHg 56%
    16:00 +21°C° 0.9 mm 4 m/S 582 mmHg 61%
    17:00 +21°C° 0.9 mm 4 m/S 581 mmHg 65%
    18:00 +19°C° 1 mm 3 m/S 581 mmHg 69%
    19:00 +18°C° 1 mm 2 m/S 582 mmHg 73%
    20:00 +17°C° 1 mm 2 m/S 582 mmHg 77%
    21:00 +18°C° 0.1 mm 1 m/S 582 mmHg 77%
    22:00 +16°C° 0.1 mm 1 m/S 582 mmHg 78%
    23:00 +16°C° 0.1 mm 1 m/S 582 mmHg 78%

    28 August, Mittwoch

    Zeit Temperatur Niederschläge Wind Luftdruck Luftfeuchtigkeit
    00:00 +15°C° 0.1 mm 1 m/S 582 mmHg 79%
    01:00 +15°C° 0.1 mm 1 m/S 581 mmHg 79%
    02:00 +15°C° 0.1 mm 1 m/S 581 mmHg 80%
    03:00 +13°C° 0 mm 0 m/S 581 mmHg 81%
    04:00 +13°C° 0 mm 0 m/S 581 mmHg 81%
    05:00 +13°C° 0 mm 0 m/S 581 mmHg 82%
    06:00 +14°C° 0 mm 0 m/S 582 mmHg 76%
    07:00 +16°C° 0 mm 0 m/S 583 mmHg 70%
    08:00 +18°C° 0 mm 0 m/S 584 mmHg 64%
    09:00 +21°C° 0 mm 1 m/S 585 mmHg 57%
    10:00 +23°C° 0 mm 2 m/S 585 mmHg 51%
    11:00 +25°C° 0 mm 2 m/S 585 mmHg 44%
    12:00 +25°C° 0 mm 3 m/S 585 mmHg 42%
    13:00 +26°C° 0 mm 5 m/S 585 mmHg 41%
    14:00 +26°C° 0 mm 6 m/S 585 mmHg 39%
    15:00 +24°C° 0.1 mm 6 m/S 584 mmHg 46%
    16:00 +22°C° 0.1 mm 6 m/S 583 mmHg 52%
    17:00 +21°C° 0.1 mm 6 m/S 582 mmHg 59%
    18:00 +19°C° 0 mm 5 m/S 582 mmHg 65%
    19:00 +17°C° 0 mm 4 m/S 582 mmHg 71%
    20:00 +16°C° 0 mm 3 m/S 582 mmHg 77%
    21:00 +15°C° 0 mm 2 m/S 582 mmHg 80%
    22:00 +14°C° 0 mm 2 m/S 582 mmHg 82%
    23:00 +14°C° 0 mm 1 m/S 582 mmHg 84%

    29 August, Donnerstag

    Zeit Temperatur Niederschläge Wind Luftdruck Luftfeuchtigkeit
    00:00 +13°C° 0 mm 1 m/S 581 mmHg 86%
    01:00 +13°C° 0 mm 1 m/S 581 mmHg 87%
    02:00 +13°C° 0 mm 1 m/S 581 mmHg 89%
    03:00 +12°C° 0 mm 1 m/S 581 mmHg 89%
    04:00 +12°C° 0 mm 1 m/S 581 mmHg 89%
    05:00 +12°C° 0 mm 1 m/S 581 mmHg 89%
    06:00 +13°C° 0 mm 1 m/S 582 mmHg 81%
    07:00 +15°C° 0 mm 1 m/S 583 mmHg 73%
    08:00 +18°C° 0 mm 1 m/S 584 mmHg 65%
    09:00 +20°C° 0 mm 1 m/S 584 mmHg 56%
    10:00 +22°C° 0 mm 1 m/S 585 mmHg 46%
    11:00 +24°C° 0 mm 1 m/S 585 mmHg 36%
    12:00 +25°C° 0 mm 2 m/S 585 mmHg 34%
    13:00 +25°C° 0 mm 3 m/S 585 mmHg 32%
    14:00 +26°C° 0 mm 4 m/S 585 mmHg 30%
    15:00 +25°C° 0.1 mm 4 m/S 584 mmHg 40%
    16:00 +22°C° 0.1 mm 5 m/S 583 mmHg 50%
    17:00 +21°C° 0.1 mm 5 m/S 583 mmHg 60%
    18:00 +19°C° 0.4 mm 4 m/S 583 mmHg 68%
    19:00 +17°C° 0.4 mm 4 m/S 583 mmHg 76%
    20:00 +16°C° 0.4 mm 3 m/S 582 mmHg 84%
    21:00 +15°C° 0.1 mm 2 m/S 582 mmHg 85%
    22:00 +15°C° 0.1 mm 2 m/S 582 mmHg 86%
    23:00 +14°C° 0.1 mm 1 m/S 582 mmHg 88%

    30 August, Freitag

    Zeit Temperatur Niederschläge Wind Luftdruck Luftfeuchtigkeit
    00:00 +14°C° 0 mm 1 m/S 582 mmHg 88%
    01:00 +13°C° 0 mm 1 m/S 581 mmHg 89%
    02:00 +13°C° 0 mm 1 m/S 581 mmHg 89%
    03:00 +13°C° 0 mm 1 m/S 580 mmHg 89%
    04:00 +12°C° 0 mm 1 m/S 580 mmHg 88%
    05:00 +12°C° 0 mm 1 m/S 580 mmHg 88%
    06:00 +13°C° 0 mm 0 m/S 581 mmHg 80%
    07:00 +14°C° 0 mm 0 m/S 582 mmHg 73%
    08:00 +16°C° 0 mm 0 m/S 583 mmHg 65%
    09:00 +20°C° 0 mm 1 m/S 584 mmHg 56%
    10:00 +22°C° 0 mm 1 m/S 584 mmHg 47%
    11:00 +23°C° 0 mm 1 m/S 584 mmHg 39%
    12:00 +24°C° 0 mm 2 m/S 584 mmHg 37%
    13:00 +25°C° 0 mm 3 m/S 584 mmHg 36%
    14:00 +25°C° 0 mm 5 m/S 584 mmHg 34%
    15:00 +23°C° 0.1 mm 5 m/S 583 mmHg 43%
    16:00 +22°C° 0.1 mm 5 m/S 582 mmHg 51%
    17:00 +20°C° 0.1 mm 5 m/S 582 mmHg 59%
    18:00 +19°C° 0.2 mm 4 m/S 582 mmHg 66%
    19:00 +17°C° 0.2 mm 3 m/S 582 mmHg 73%
    20:00 +16°C° 0.2 mm 2 m/S 582 mmHg 79%
    21:00 +15°C° 0 mm 2 m/S 581 mmHg 80%
    22:00 +15°C° 0 mm 2 m/S 581 mmHg 81%
    23:00 +14°C° 0 mm 1 m/S 581 mmHg 82%
    Mehr zeigen